#timestamp,LO_Frequency,Hit,StdDev 
1460257215.4,286047011.6,Y
1460257235.2,286047007.6,P
1460257255.1,286047005.7,P
1460257256.0,286047005.7,P
1460257275.8,286047003.6,Y
1460257295.6,286046997.7,P
1460257315.5,286046999.1,N
1460257335.3,286046999.8,N
1460257355.1,286047000.9,N
1460257375.9,286046996.5,N
1460257395.7,286046998.4,N
1460257415.5,286047000.0,N
1460257435.4,286046999.3,N
1460257455.2,286046999.4,N
1460257475.0,286047001.2,N
1460257475.9,286047001.2,N
1460257495.8,286046996.7,N
1460257515.6,286046993.5,N
1460257535.4,286046997.2,N
1460257555.2,286046999.0,N
1460257575.1,286046996.6,N
1460257576.0,286046996.6,N
1460257595.8,286046995.5,N
1460257615.6,286046997.1,N
1460257635.5,286046996.3,N
1460257655.3,286046994.3,N
1460257675.1,286046996.8,N
1460257695.9,286046997.3,N
1460257715.7,286046996.7,N
1460257735.5,286046998.8,N
1460257755.4,286046997.2,N
1460257775.2,286046996.2,N
1460257795.0,286046995.2,N
1460257795.9,286046995.2,N
1460257815.8,286046992.1,Y
1460257835.6,286046996.7,P
1460257855.4,286046995.3,P
1460257875.3,286046997.7,N
1460257895.1,286046999.8,N
1460257896.0,286046999.8,N
1460257915.8,286047001.0,N
1460257935.6,286047000.0,N
1460257955.5,286046998.2,N
1460257975.3,286046998.8,N
1460257995.1,286047000.4,N
1460258015.9,286046998.2,N
1460258035.7,286047002.8,N
1460258055.5,286046998.4,N
1460258075.4,286046998.8,N
1460258095.2,286046998.5,N
1460258115.0,286046997.7,N
1460258115.9,286046997.7,N
1460258135.8,286046997.6,N
1460258155.6,286046996.1,N
1460258175.4,286046997.2,N
1460258195.2,286046997.2,N
1460258215.1,286046996.5,N
1460258216.0,286046996.5,N
1460258235.8,286046994.9,Y
1460258255.7,286046997.9,P
1460258275.5,286046996.3,P
1460258295.3,286046996.2,P
1460258315.2,286046993.9,Y
1460258335.9,286046999.6,P
1460258355.7,286046999.2,N
1460258375.5,286046999.1,N
1460258395.4,286046997.3,N
1460258415.2,286046998.1,N
1460258435.0,286046999.9,N
1460258435.9,286046999.9,N
1460258455.8,286047002.5,N
1460258475.6,286046998.5,N
1460258495.4,286046998.6,N
1460258515.3,286046999.6,N
1460258535.1,286046997.5,N
1460258536.0,286046997.5,N
1460258555.8,286046991.8,Y
1460258575.7,286046990.5,P
1460258595.5,286046990.7,N
1460258615.3,286046990.2,N
1460258635.2,286046991.6,N
1460258655.9,286046991.2,N
1460258675.7,286046989.7,Y
1460258695.6,286046997.7,P
1460258715.4,286046995.6,N
1460258735.2,286046998.6,N
1460258755.1,286046998.8,N
1460258756.0,286046998.8,N
1460258775.8,286047002.3,N
1460258795.6,286047002.6,N
1460258815.5,286047002.5,N
1460258835.3,286046999.7,N
1460258855.1,286047001.5,N
1460258875.8,286047002.4,N
1460258895.7,286047004.2,N
1460258915.5,286047004.6,N
1460258935.3,286047007.0,N
1460258955.2,286047007.3,N
1460258975.9,286047009.1,N
1460258995.7,286047007.8,N
1460259015.6,286047010.6,N
1460259035.4,286047012.4,N
1460259055.2,286047013.7,N
1460259075.1,286047011.3,N
1460259076.0,286047011.3,N
1460259095.8,286047013.7,N
1460259115.6,286047013.2,N
1460259135.5,286047013.0,N
1460259155.3,286047011.3,N
1460259175.1,286047011.0,N
1460259195.8,286047012.6,N
1460259215.7,286047014.5,N
1460259235.5,286047014.2,N
1460259255.3,286047015.4,N
1460259275.2,286047013.0,N
1460259295.0,286047011.1,N
1460259295.9,286047011.1,N
1460259315.7,286047011.3,N
1460259335.6,286047011.6,N
1460259355.4,286047012.1,N
1460259375.2,286047012.1,N
1460259395.1,286047011.5,N
1460259396.0,286047011.5,Y
1460259415.8,286047002.6,P
1460259435.6,286047000.7,N
1460259455.5,286046998.3,N
1460259475.3,286046996.7,N
1460259495.1,286046995.4,N
1460259515.9,286046995.1,N
1460259535.7,286046995.7,N
1460259555.5,286046995.8,N
1460259575.4,286046995.5,N
1460259595.2,286046995.5,N
1460259615.0,286046995.0,N
1460259615.9,286046995.0,N
1460259635.8,286046999.6,N
1460259655.6,286047000.8,N
1460259675.4,286047000.8,N
1460259695.2,286047000.3,N
1460259715.1,286047000.2,N
1460259716.0,286047000.2,N
1460259735.8,286047003.9,N
1460259755.6,286047003.4,N
1460259775.5,286047008.8,N
1460259795.3,286047008.7,N
1460259815.1,286047010.6,N
1460259835.9,286047009.3,N
1460259855.7,286047010.4,N
1460259875.5,286047007.7,N
1460259895.4,286047009.1,N
1460259915.2,286047006.9,N
1460259935.0,286047005.0,N
1460259935.9,286047005.0,N
1460259955.8,286047007.0,N
1460259975.6,286047006.4,N
1460259995.4,286047008.3,N
1460260015.3,286047008.6,N
1460260035.1,286047009.1,N
1460260036.0,286047009.1,N
1460260055.8,286047007.0,N
1460260075.6,286047006.4,N
1460260095.5,286047006.3,N
1460260115.3,286047006.9,N
1460260135.1,286047008.0,N
1460260155.9,286047007.4,N
1460260175.7,286047004.9,N
1460260195.5,286047009.1,N
1460260215.4,286047006.5,N
1460260235.2,286047008.8,Y
1460260255.0,286046998.1,P
1460260255.9,286046998.1,N
1460260275.8,286046999.9,N
1460260295.6,286046999.7,N
1460260315.4,286046996.6,N
1460260335.3,286046996.3,N
1460260355.1,286046996.0,N
1460260356.0,286046996.0,N
1460260375.8,286046995.3,N
1460260395.7,286046997.3,N
1460260415.5,286046995.6,N
1460260435.3,286046994.3,N
1460260455.2,286046992.2,N
1460260475.9,286046991.8,N
1460260495.7,286046991.7,N
1460260515.5,286046992.1,N
1460260535.4,286046994.4,N
1460260555.2,286046993.9,N
1460260575.0,286046993.3,N
1460260575.9,286046993.3,N
1460260595.8,286046992.3,N
1460260615.6,286046993.1,N
1460260635.4,286046991.7,N
1460260655.3,286046992.1,N
1460260675.1,286046995.7,N
1460260676.0,286046995.7,N
1460260695.8,286046995.0,N
1460260715.7,286046996.4,N
1460260735.5,286046993.6,N
1460260755.3,286046992.9,N
1460260775.2,286046993.0,Y
1460260795.9,286046999.2,P
